Lid_Strength_Index
0 -0 -0 -0 1 2 5 10 11 4 4 10 11 13 12 10 9 8 10 9 10 12 11 13 13 13 11 8 9 12 12 14 16 14 13 11 13 14 14 16 18 18 17 16
0 0 -0 -0 1 2 9 12 7 4 5 13 13 12 10 9 10 10 10 11 9 9 11 13 12 11 8 7 9 12 12 15 17 16 13 13 14 15 14 15 16 18 18 16
1 1 -0 0 1 2 8 11 11 8 7 9 10 11 11 11 8 9 9 10 9 11 12 11 13 12 9 8 8 7 9 14 15 17 15 14 15 15 15 14 17 17 17 15
1 1 0 0 1 2 8 12 11 10 13 11 11 10 11 12 12 9 8 10 10 11 14 13 13 11 10 8 8 9 10 14 14 15 13 13 14 14 15 15 14 14 14 15
0 1 0 0 1 2 8 12 11 12 11 11 11 11 11 12 11 10 11 11 10 10 13 12 13 11 11 11 10 10 11 14 14 16 14 13 14 13 14 14 15 15 15 13
0 0 1 1 1 3 9 11 9 11 11 12 12 12 11 11 10 9 9 9 10 11 12 10 10 9 10 9 11 13 12 14 15 16 16 15 16 15 15 14 14 12 14 10
0 1 1 1 1 3 7 10 9 12 13 12 12 12 10 11 11 10 10 10 11 12 11 10 10 10 11 10 12 11 11 14 14 18 17 20 15 13 12 12 13 12 13 13
1 1 1 0 1 2 6 9 9 12 14 12 12 12 13 13 13 13 12 12 12 11 11 11 13 12 12 13 13 13 14 14 16 17 19 16 14 14 14 13 14 12 12 12
1 1 1 0 0 2 6 8 8 11 12 13 12 13 13 15 16 14 14 12 11 11 11 13 16 17 15 16 15 14 14 13 14 17 18 19 14 12 12 11 15 11 11 12
1 1 1 1 1 2 5 8 7 9 13 12 13 14 13 14 15 15 14 14 13 11 12 15 16 16 14 17 17 16 16 16 17 16 17 16 13 12 12 16 15 12 12 12
2 1 1 1 1 2 4 7 7 7 11 12 11 11 13 14 14 15 14 12 13 13 13 14 15 15 15 16 15 16 16 17 17 17 18 19 12 12 14 12 12 11 11 11
2 1 1 1 1 1 3 6 7 6 9 10 9 9 9 11 11 12 13 13 13 12 14 15 15 16 17 16 17 15 16 15 15 15 15 13 12 11 11 11 11 12 11 11
2 2 1 1 1 1 2 5 8 7 9 9 10 10 8 7 8 7 10 11 10 11 11 13 14 15 15 16 16 16 15 13 15 15 14 14 13 12 12 11 11 11 11 10
2 2 2 1 1 1 2 5 5 6 8 10 10 7 9 7 7 8 8 9 8 9 10 12 13 13 14 15 14 14 14 13 15 15 14 13 12 12 12 12 11 11 12 12
2 2 2 1 1 1 3 4 4 5 6 9 9 8 8 8 8 8 8 9 10 11 11 12 13 13 13 14 15 15 14 14 15 15 13 13 12 12 11 12 12 12 13 13
3 2 1 1 1 2 4 6 5 5 5 8 11 8 9 8 8 8 9 9 10 11 12 14 12 10 12 16 17 13 13 13 12 13 12 13 13 12 13 13 13 13 13 13
3 2 2 1 2 4 6 8 7 4 5 9 12 11 8 8 8 9 9 9 10 10 12 13 13 13 12 14 18 13 13 12 12 12 12 13 14 13 14 13 13 12 14 13
2 2 1 2 3 4 6 5 4 4 7 9 14 13 10 8 9 10 8 9 9 10 11 10 11 11 11 14 13 14 13 14 14 14 14 13 15 15 15 14 12 13 13 12
3 3 3 5 6 7 6 4 5 5 7 12 13 14 15 9 10 9 9 9 12 9 11 11 10 12 16 13 14 14 14 13 14 15 15 15 14 14 13 13 13 15 15 14
3 5 8 11 8 5 5 8 9 10 9 10 13 12 13 11 11 12 12 12 13 14 12 10 13 13 12 13 12 12 13 13 14 14 15 14 15 14 14 15 15 15 15 14
7 10 11 8 6 8 11 12 14 12 15 11 11 12 12 11 13 14 13 15 16 16 15 14 16 17 16 15 15 14 14 13 14 13 14 14 14 15 15 15 15 15 15 14
8 8 8 9 11 13 16 18 14 14 16 12 12 12 12 12 13 13 14 17 20 22 14 15 18 17 15 16 16 15 14 14 14 14 15 15 14 14 15 15 15 15 15 15
8 10 12 12 13 16 19 17 16 16 14 13 12 13 11 12 14 17 17 21 21 15 16 16 17 17 16 16 16 16 14 14 15 15 15 14 14 15 15 15 15 15 16 16
11 13 15 14 16 16 17 17 17 16 13 12 12 13 12 12 16 14 16 17 15 19 21 21 19 17 16 16 16 16 16 15 15 15 15 15 16 16 16 15 15 16 16 16
13 13 15 16 17 17 20 18 14 13 11 12 14 16 15 15 15 15 16 17 19 18 21 20 19 17 17 17 16 16 16 17 17 17 17 17 17 17 17 16 16 16 16 17
13 14 17 17 18 18 16 16 14 13 12 13 15 18 20 18 18 17 22 21 21 20 19 20 19 16 16 16 16 16 17 17 17 17 17 16 16 17 17 18 18 18 18 20
13 15 16 19 22 18 15 15 13 12 13 16 18 19 19 18 21 19 21 21 19 19 19 18 17 16 16 16 16 16 16 16 17 17 17 17 17 18 18 19 21 22 20 21